Powrót do katalogu

FENGYUN 1C DEB

AktywnySSO
NORAD 29924·DEBRIS·🇨🇳 China

Wystrzelony May 10, 1999 z Taiyuan Satellite Launch Center

Loading…

Następne Przeloty (najbliższe 24 godziny)

TLE

ŚwieżeSource: Space-Track

Epoka: Sep 14, 2026, 12:13 UTC

1 29924U 99025HW  26257.50918734  .00000001  00000-0  25104-4 0  9997
2 29924  98.7286 266.8574 0026536 196.2383 317.4871 14.08958109 10928

Śledź FENGYUN 1C DEB w czasie rzeczywistym z AllMySat

Download on the App Store